"Pseudo-MPEC" for P22oEGk

Created 2026 Jul 26 12:35:14 UT using Find_Orb

Click here for an explanation of pseudo-MPECs

 
 Astrometry: 
     P22oEGk*0C2026 07 25.56633700 35 34.365+36 39 17.25   ~7PKo 22.22wXNEOCPF52
     P22oEGk 0C2026 07 25.57528900 35 35.844+36 39 20.95   ~7PKo 22.60wXNEOCPF52
     P22oEGk 0C2026 07 25.58423000 35 37.303+36 39 24.49   ~7PKo 22.50wXNEOCPF52
     P22oEGk 0C2026 07 25.59317800 35 38.765+36 39 28.21   ~7PKo 22.39wXNEOCPF52

Station data:
(F52) Pan-STARRS 2, Haleakala  (N20.707382 W156.255910)  US/Hawaii.
   Observers J. Herman, T. Lowe, P. Minguez, A. Schultz, I. Smith. Measurers
   K. Chambers, T. de Boer, J. Fairlamb, H. Gao, M. Huber, C.-C. Lin, E.
   Magnier, Y. Ramanjooloo, R. Wainscoat, R. Weryk. 1.8-m Ritchey-Chrétien +
   CCD.

Orbital elements:  P22oEGk
   Perihelion 2026 Sep 29.476609 +/- 48.1 TT = 11:26:18.9 (JD 2461312.976609)
Epoch 2026 Jul 26.0 TT = JDT 2461247.5   Earth MOID: 0.0302      AutoNEOCP
M 308.903393550 +/- 60              (J2000 ecliptic)
n   0.780379552 +/- 0.663           Peri.  302.248460 +/- 70
a   1.168419496 +/- 0.662           Node   143.813436 +/- 34
e   0.68830422 +/- 0.223            Incl.   88.385808 +/- 35
P   1.263/461.305d         H 21.39  G  0.15   U 12.5  SR
q 0.364191419 +/- 0.395    Q 1.972647572 +/- 21.5
From 4 observations 2026 July 25 (38.7 min); mean residual 0".05
Residuals in arcseconds: 
260725 F52  .06-  .00     260725 F52  .01+  .07-    
260725 F52  .09+  .03+    260725 F52  .04-  .04+    

Ephemerides (geocentric):
Date (UTC) HH   RA             Dec           delta  r     elong  mag " sig PA
---- --------  ------------   ------------  ------ ------ -----  --- --------
2026 07 26 13  00 38 29.297   +36 45 35.58  .46327 1.1700  97.5 22.2 3040  87
2026 07 26 14  00 38 37.138   +36 45 51.96  .46225 1.1695  97.5 22.2 4791  86
2026 07 26 15  00 38 45.008   +36 46 08.34  .46123 1.1691  97.5 22.2 9894  81
2026 07 26 16  00 38 52.910   +36 46 24.72  .46020 1.1686  97.5 22.2 563'  62
2026 07 26 17  00 39 00.842   +36 46 41.09  .45918 1.1682  97.5 22.2 845'  60
2026 07 26 18  00 39 08.805   +36 46 57.47  .45816 1.1677  97.6 22.2 905'  61
2026 07 26 19  00 39 16.799   +36 47 13.85  .45714 1.1673  97.6 22.2 927'  62
2026 07 26 20  00 39 24.824   +36 47 30.23  .45612 1.1668  97.6 22.2 939'  62
2026 07 26 21  00 39 32.881   +36 47 46.62  .45510 1.1663  97.6 22.2 947'  62
2026 07 26 22  00 39 40.970   +36 48 03.00  .45408 1.1659  97.6 22.2 953'  62
2026 07 26 23  00 39 49.091   +36 48 19.38  .45306 1.1654  97.6 22.1 963'  63
2026 07 27 00  00 39 57.251   +36 48 35.81  .45204 1.1650  97.6 22.1  17d  63
2026 07 27 01  00 40 05.460   +36 48 52.36  .45102 1.1645  97.6 22.1  20d  62
2026 07 27 02  00 40 13.718   +36 49 09.03  .45000 1.1641  97.6 22.1  21d  61
2026 07 27 03  00 40 22.025   +36 49 25.81  .44898 1.1636  97.6 22.1  22d  62
2026 07 27 04  00 40 30.382   +36 49 42.72  .44795 1.1631  97.6 22.1  22d  62
2026 07 27 05  00 40 38.789   +36 49 59.74  .44693 1.1627  97.6 22.1  22d  62
2026 07 27 06  00 40 47.246   +36 50 16.88  .44591 1.1622  97.7 22.1  22d  62
2026 07 27 07  00 40 55.754   +36 50 34.14  .44489 1.1617  97.7 22.1  22d  62
2026 07 27 08  00 41 04.314   +36 50 51.52  .44387 1.1613  97.7 22.1  22d  62
2026 07 27 09  00 41 12.924   +36 51 09.03  .44285 1.1608  97.7 22.1  23d  62
2026 07 27 10  00 41 21.587   +36 51 26.65  .44183 1.1604  97.7 22.1  23d  63
2026 07 27 11  00 41 30.302   +36 51 44.40  .44080 1.1599  97.7 22.1  23d  63
2026 07 27 12  00 41 39.070   +36 52 02.27  .43978 1.1594  97.7 22.1  24d  62
2026 07 27 13  00 41 47.891   +36 52 20.26  .43876 1.1590  97.7 22.1  24d  62
2026 07 27 14  00 41 56.766   +36 52 38.38  .43774 1.1585  97.7 22.1  25d  62
2026 07 27 15  00 42 05.694   +36 52 56.62  .43672 1.1580  97.7 22.1  26d  61
2026 07 27 16  00 42 14.677   +36 53 14.98  .43569 1.1576  97.7 22.1  26d  62
2026 07 27 17  00 42 23.714   +36 53 33.47  .43467 1.1571  97.7 22.1  26d  62
2026 07 27 18  00 42 32.807   +36 53 52.09  .43365 1.1566  97.7 22.1  27d  62
2026 07 27 19  00 42 41.955   +36 54 10.83  .43263 1.1561  97.7 22.1  27d  62
2026 07 27 20  00 42 51.159   +36 54 29.70  .43160 1.1557  97.7 22.0  27d  62
2026 07 27 21  00 43 00.420   +36 54 48.70  .43058 1.1552  97.8 22.0  27d  62
2026 07 27 22  00 43 09.738   +36 55 07.83  .42956 1.1547  97.8 22.0  27d  62
2026 07 27 23  00 43 19.112   +36 55 27.09  .42854 1.1543  97.8 22.0  27d  62
2026 07 28 00  00 43 28.545   +36 55 46.47  .42751 1.1538  97.8 22.0  27d  62
2026 07 28 01  00 43 38.036   +36 56 05.99  .42649 1.1533  97.8 22.0  27d  62
2026 07 28 02  00 43 47.586   +36 56 25.63  .42547 1.1528  97.8 22.0  27d  62
2026 07 28 03  00 43 57.194   +36 56 45.41  .42445 1.1524  97.8 22.0  27d  62
2026 07 28 04  00 44 06.855   +36 57 05.26  .42342 1.1519  97.8 22.0  27d  62
2026 07 28 05  00 44 16.559   +36 57 25.13  .42240 1.1514  97.8 22.0  28d  62
2026 07 28 06  00 44 26.305   +36 57 45.00  .42138 1.1509  97.8 22.0  28d  63
2026 07 28 07  00 44 36.096   +36 58 04.88  .42036 1.1505  97.8 22.0  28d  62
2026 07 28 08  00 44 45.930   +36 58 24.76  .41933 1.1500  97.8 22.0  29d  62
2026 07 28 09  00 44 55.808   +36 58 44.66  .41831 1.1495  97.8 22.0  30d  62
2026 07 28 10  00 45 05.731   +36 59 04.56  .41729 1.1490  97.8 22.0  30d  62
2026 07 28 11  00 45 15.699   +36 59 24.47  .41627 1.1486  97.8 22.0  31d  62
2026 07 28 12  00 45 25.712   +36 59 44.38  .41524 1.1481  97.8 22.0  31d  62